Weather in Kalynivka

Ukraine / Odesa District     46°53′51″N   31°00′57″E
temp.,
°C
wind,
m/s
gust,
m/s
humid.,
%
clouds,
%
prec.,
mm/h
press.,
hPa
HPBL,
m
22 april, thu
thu2200:00+9sw368351 0.0 1018105
03:00+10ssw3678100 0.0 1018153
06:00+9s347898 0.0 1019100
09:00+13s56665 0.0 1020484
12:00+17s66497 0.0 10201646
15:00+17s6749100 0.3 10201618
18:00+14s6760100 0.4 1019586
21:00+10sse5118369 0.4 1019296
23 april, fri
fri2300:00+10s51281100 0.0 1019314
03:00+9s51284100 0.0 1018306
06:00+9s51093100 0.0 1017231
09:00+12ssw6880100 0.8 1017451
12:00+17sw5757100 0.2 10161425
15:00+12wsw5781100 4.3 1016472
18:00+10nw3589100 6.0 1017457
21:00+7n5987100 6.6 1019482
24 april, sat
sat2400:00+5nw37932 0.0 1020204
03:00+5w38920 0.0 1020193
06:00+4wnw37830 0.0 1020124
09:00+9wnw58605 0.0 1021802
12:00+9nw10105899 0.0 10221538
15:00+11wnw8123664 0.0 10222334
18:00+11nw710385 0.0 10222321
21:00+6nw33520 0.0 102435
25 april, sun
sun2500:00+5wnw22534 0.0 102410
03:00+4w22575 0.0 102413
06:00+4wsw22575 0.0 102311
09:00+9ssw34455 0.0 1023438
12:00+13ssw453713 0.0 10211851
15:00+13ssw774474 0.0 10201729
18:00+12sw5754100 0.0 10191296
21:00+8ssw596196 0.1 1020251
26 april, mon
mon2600:00+7wsw4887100 0.9 1020379
03:00+6nnw6982100 1.1 1020576
06:00+5nw38854 0.2 1020274
09:00+8nnw56520 0.2 1021892
12:00+11nw57385 0.0 10211830
15:00+13wnw683386 0.0 10192539
18:00+12nw683760 0.0 10192334
21:00+8nnw355485 0.0 102073